When you browse on this site, cookies collect data to enhance your experience and personalize the content and advertising you see.
Visit our Privacy Policy to learn more. By continuing to use the site, you agree to this use of cookies and data.

Hourly Weather Bukavu

Today, 9 August, Sunday

Time Temperature Precipitation Wind Pressure Humidity
00:00 +19°C° 1.1 mm 0 mps 689 mmHg 97%
01:00 +19°C° 1.1 mm 0 mps 688 mmHg 98%
02:00 +18°C° 0 mm 0 mps 688 mmHg 98%
03:00 +19°C° 1 mm 0 mps 688 mmHg 98%
04:00 +19°C° 1 mm 0 mps 688 mmHg 98%
05:00 +19°C° 1 mm 0 mps 689 mmHg 99%
06:00 +19°C° 0 mm 0 mps 689 mmHg 98%
07:00 +19°C° 0 mm 0 mps 689 mmHg 98%
08:00 +20°C° 0 mm 0 mps 690 mmHg 96%
09:00 +22°C° 0.5 mm 0 mps 690 mmHg 92%
10:00 +23°C° 0.5 mm 0 mps 690 mmHg 87%
11:00 +26°C° 0.5 mm 1 mps 690 mmHg 83%
12:00 +28°C° 0.5 mm 1 mps 689 mmHg 76%
13:00 +29°C° 0.5 mm 1 mps 689 mmHg 69%
14:00 +30°C° 0 mm 1 mps 688 mmHg 62%
15:00 +29°C° 0.9 mm 1 mps 688 mmHg 71%
16:00 +28°C° 0.9 mm 1 mps 688 mmHg 80%
17:00 +25°C° 0.9 mm 0 mps 687 mmHg 88%
18:00 +23°C° 1 mm 0 mps 687 mmHg 91%
19:00 +22°C° 1 mm 0 mps 688 mmHg 93%
20:00 +20°C° 1 mm 0 mps 688 mmHg 95%
21:00 +20°C° 0.1 mm 0 mps 688 mmHg 96%
22:00 +19°C° 0.1 mm 0 mps 689 mmHg 96%
23:00 +19°C° 0.1 mm 0 mps 689 mmHg 97%

Tomorrow, 10 August, Monday

Time Temperature Precipitation Wind Pressure Humidity
00:00 +19°C° 0.3 mm 0 mps 689 mmHg 97%
01:00 +19°C° 0.3 mm 0 mps 688 mmHg 98%
02:00 +18°C° 0.3 mm 0 mps 688 mmHg 98%
03:00 +18°C° 0.7 mm 0 mps 688 mmHg 98%
04:00 +18°C° 0.7 mm 0 mps 688 mmHg 99%
05:00 +18°C° 0.7 mm 0 mps 688 mmHg 99%
06:00 +19°C° 0.7 mm 0 mps 688 mmHg 98%
07:00 +20°C° 0.7 mm 0 mps 689 mmHg 97%
08:00 +21°C° 0.7 mm 0 mps 690 mmHg 96%
09:00 +22°C° 1.2 mm 0 mps 690 mmHg 93%
10:00 +23°C° 1.2 mm 0 mps 690 mmHg 90%
11:00 +25°C° 1.2 mm 0 mps 689 mmHg 87%
12:00 +26°C° 0.8 mm 0 mps 689 mmHg 81%
13:00 +27°C° 0.8 mm 0 mps 689 mmHg 75%
14:00 +28°C° 0.8 mm 0 mps 688 mmHg 68%
15:00 +27°C° 1.1 mm 0 mps 688 mmHg 75%
16:00 +26°C° 1.1 mm 0 mps 687 mmHg 82%
17:00 +25°C° 1.1 mm 0 mps 687 mmHg 89%
18:00 +23°C° 0.9 mm 0 mps 687 mmHg 91%
19:00 +22°C° 0.9 mm 0 mps 688 mmHg 94%
20:00 +20°C° 0.9 mm 0 mps 688 mmHg 96%
21:00 +20°C° 0.2 mm 0 mps 688 mmHg 96%
22:00 +20°C° 0.2 mm 0 mps 688 mmHg 97%
23:00 +19°C° 0.2 mm 0 mps 689 mmHg 97%

Day after tomorrow, 11 August, Tuesday

Time Temperature Precipitation Wind Pressure Humidity
00:00 +19°C° 0.1 mm 0 mps 688 mmHg 98%
01:00 +19°C° 0.1 mm 0 mps 688 mmHg 98%
02:00 +19°C° 0.1 mm 0 mps 688 mmHg 98%
03:00 +19°C° 0.1 mm 0 mps 688 mmHg 98%
04:00 +19°C° 0.1 mm 0 mps 688 mmHg 98%
05:00 +19°C° 0.1 mm 0 mps 688 mmHg 98%
06:00 +19°C° 0 mm 0 mps 689 mmHg 97%
07:00 +20°C° 0 mm 0 mps 689 mmHg 95%
08:00 +21°C° 0 mm 0 mps 690 mmHg 94%
09:00 +25°C° 0.9 mm 1 mps 690 mmHg 90%
10:00 +26°C° 0.9 mm 1 mps 690 mmHg 86%
11:00 +28°C° 0.9 mm 1 mps 690 mmHg 82%
12:00 +28°C° 1.9 mm 1 mps 689 mmHg 84%
13:00 +26°C° 1.9 mm 0 mps 689 mmHg 85%
14:00 +26°C° 1.9 mm 0 mps 688 mmHg 87%
15:00 +25°C° 1.2 mm 0 mps 687 mmHg 89%
16:00 +25°C° 1.2 mm 0 mps 687 mmHg 91%
17:00 +24°C° 1.2 mm 0 mps 687 mmHg 93%
18:00 +23°C° 0.2 mm 0 mps 687 mmHg 94%
19:00 +22°C° 0.2 mm 0 mps 688 mmHg 95%
20:00 +20°C° 0.2 mm 0 mps 688 mmHg 96%
21:00 +20°C° 0.1 mm 0 mps 688 mmHg 96%
22:00 +20°C° 0.1 mm 0 mps 688 mmHg 96%
23:00 +20°C° 0.1 mm 0 mps 688 mmHg 97%

12 August, Wednesday

Time Temperature Precipitation Wind Pressure Humidity
00:00 +20°C° 0.1 mm 0 mps 688 mmHg 97%
01:00 +20°C° 0.1 mm 0 mps 688 mmHg 97%
02:00 +20°C° 0.1 mm 0 mps 687 mmHg 97%
03:00 +19°C° 0 mm 0 mps 687 mmHg 97%
04:00 +19°C° 0 mm 0 mps 687 mmHg 97%
05:00 +19°C° 0 mm 0 mps 687 mmHg 98%
06:00 +20°C° 0 mm 0 mps 688 mmHg 96%
07:00 +21°C° 0 mm 0 mps 688 mmHg 94%
08:00 +22°C° 0 mm 0 mps 689 mmHg 93%
09:00 +24°C° 0.1 mm 0 mps 689 mmHg 82%
10:00 +26°C° 0.1 mm 0 mps 690 mmHg 71%
11:00 +29°C° 0.1 mm 0 mps 690 mmHg 59%
12:00 +29°C° 0.1 mm 0 mps 689 mmHg 61%
13:00 +31°C° 0.1 mm 1 mps 688 mmHg 62%
14:00 +30°C° 0.1 mm 1 mps 687 mmHg 64%
15:00 +28°C° 2 mm 1 mps 687 mmHg 74%
16:00 +26°C° 2 mm 1 mps 687 mmHg 84%
17:00 +24°C° 2 mm 1 mps 686 mmHg 95%
18:00 +23°C° 3.9 mm 2 mps 687 mmHg 96%
19:00 +21°C° 3.9 mm 2 mps 687 mmHg 97%
20:00 +21°C° 3.9 mm 2 mps 688 mmHg 98%
21:00 +20°C° 1 mm 2 mps 688 mmHg 98%
22:00 +20°C° 1 mm 2 mps 689 mmHg 98%
23:00 +20°C° 1 mm 1 mps 689 mmHg 99%

13 August, Thursday

Time Temperature Precipitation Wind Pressure Humidity
00:00 +21°C° 0 mm 1 mps 688 mmHg 99%
01:00 +21°C° 0 mm 1 mps 688 mmHg 99%
02:00 +21°C° 0 mm 1 mps 688 mmHg 99%
03:00 +20°C° 0 mm 1 mps 688 mmHg 99%
04:00 +18°C° 0 mm 0 mps 688 mmHg 98%
05:00 +18°C° 0 mm 0 mps 688 mmHg 98%
06:00 +19°C° 0 mm 0 mps 688 mmHg 96%
07:00 +20°C° 0 mm 0 mps 689 mmHg 93%
08:00 +21°C° 0 mm 0 mps 690 mmHg 91%
09:00 +23°C° 0.2 mm 0 mps 690 mmHg 82%
10:00 +27°C° 0.2 mm 1 mps 690 mmHg 73%
11:00 +29°C° 0.2 mm 1 mps 691 mmHg 63%
12:00 +28°C° 1.4 mm 1 mps 690 mmHg 73%
13:00 +27°C° 1.4 mm 1 mps 689 mmHg 82%
14:00 +26°C° 1.4 mm 2 mps 688 mmHg 92%
15:00 +26°C° 0.6 mm 1 mps 687 mmHg 90%
16:00 +25°C° 0.6 mm 1 mps 687 mmHg 89%
17:00 +25°C° 0.6 mm 1 mps 687 mmHg 87%
18:00 +24°C° 0 mm 1 mps 687 mmHg 91%
19:00 +21°C° 0 mm 0 mps 687 mmHg 94%
20:00 +20°C° 0 mm 0 mps 687 mmHg 98%
21:00 +20°C° 0 mm 0 mps 688 mmHg 98%
22:00 +19°C° 0 mm 0 mps 688 mmHg 99%
23:00 +19°C° 0 mm 0 mps 688 mmHg 99%

14 August, Friday

Time Temperature Precipitation Wind Pressure Humidity
00:00 +19°C° 0 mm 0 mps 688 mmHg 99%
01:00 +19°C° 0 mm 0 mps 687 mmHg 99%
02:00 +19°C° 0 mm 0 mps 687 mmHg 99%
03:00 +19°C° 0 mm 0 mps 687 mmHg 98%
04:00 +19°C° 0 mm 0 mps 687 mmHg 98%
05:00 +19°C° 0 mm 0 mps 687 mmHg 97%
06:00 +20°C° 0 mm 0 mps 688 mmHg 95%
07:00 +20°C° 0 mm 0 mps 689 mmHg 92%
08:00 +21°C° 0 mm 0 mps 689 mmHg 90%
09:00 +23°C° 0.3 mm 0 mps 689 mmHg 82%
10:00 +25°C° 0.3 mm 0 mps 689 mmHg 74%
11:00 +29°C° 0.3 mm 1 mps 690 mmHg 67%
12:00 +29°C° 0.9 mm 1 mps 689 mmHg 69%
13:00 +27°C° 0.9 mm 0 mps 688 mmHg 71%
14:00 +27°C° 0.9 mm 0 mps 687 mmHg 73%
15:00 +26°C° 0.6 mm 0 mps 686 mmHg 78%
16:00 +25°C° 0.6 mm 0 mps 686 mmHg 83%
17:00 +25°C° 0.6 mm 0 mps 685 mmHg 88%
18:00 +23°C° 0.2 mm 0 mps 686 mmHg 91%
19:00 +22°C° 0.2 mm 0 mps 686 mmHg 94%
20:00 +22°C° 0.2 mm 1 mps 686 mmHg 96%
21:00 +22°C° 0 mm 1 mps 686 mmHg 97%
22:00 +21°C° 0 mm 1 mps 687 mmHg 97%
23:00 +21°C° 0 mm 1 mps 687 mmHg 98%
Show more